User: anonymous   Login
Location: Unspecified
(0.0000°N, 0.0000°E)
Time: 23:33:57
(UTC+01:00)
Language:

Ariane H10 - Orbit

View from above orbital plane
View from above orbital plane
View from above satellite
View from above satellite

Ground track
Ground track

The orbit data is extracted from the following two-line orbital elements,

1 21815U 91084C   14327.06690025  .00000151  00000-0  56215-3 0  6833
2 21815 003.9315 105.0173 7186671 032.9636 324.1342 02.31143126190622
Epoch (UTC): 23 November 2014 01:36:20
Eccentricity: 0.7186671
inclination: 3.9315°
perigee height: 419 km
apogee height: 35149 km
right ascension of ascending node: 105.0173°
argument of perigee: 32.9636°
revolutions per day: 2.31143126
mean anomaly at epoch: 324.1342°
orbit number at epoch: 19062

The dashed part of the orbit path shows where the satellite is in the earth's shadow,  

DLR